RYR384 LPMA-LPPT

Flight info

Callsign RYR384
Flight time N/A
Altitude 34000
Route DEGUN DCT NARTA DCT ESUTI
Aircraft B738/M-SDE2E3FGHIRWXY/LB1

Departure

Time N/A
Airport Cristiano Ronaldo International Airport (LPMA)

Arrival

Time 2026-04-27 20:01
Airport Lisbon Humberto Delgado Airport (LPPT)
Time Latitude Longitude Altitude Speed Heading
2026-04-27 19:43 38.24994 -9.78066 12815 ft 297 kts 51°
2026-04-27 19:43 38.26712 -9.75362 12320 ft 294 kts 51°
2026-04-27 19:44 38.27571 -9.74052 12073 ft 293 kts 47°
2026-04-27 19:44 38.29193 -9.72550 11717 ft 291 kts 23°
2026-04-27 19:44 38.31155 -9.72005 11432 ft 287 kts
2026-04-27 19:44 38.33147 -9.71993 11203 ft 285 kts 359°
2026-04-27 19:45 38.35842 -9.72122 10901 ft 292 kts 359°
2026-04-27 19:45 38.37178 -9.72198 10749 ft 288 kts 359°
2026-04-27 19:45 38.39166 -9.72316 10528 ft 281 kts 359°
2026-04-27 19:45 38.41779 -9.72480 10250 ft 289 kts 359°
2026-04-27 19:46 38.43119 -9.72565 10092 ft 288 kts 359°
2026-04-27 19:46 38.45098 -9.72696 9912 ft 279 kts 359°
2026-04-27 19:46 38.47005 -9.72830 9818 ft 269 kts 359°
2026-04-27 19:46 38.48916 -9.72927 9605 ft 278 kts
2026-04-27 19:47 38.50761 -9.72348 9316 ft 273 kts 30°
2026-04-27 19:47 38.52192 -9.70804 8968 ft 266 kts 56°
2026-04-27 19:47 38.52864 -9.68681 8656 ft 261 kts 83°
2026-04-27 19:47 38.52666 -9.66424 8441 ft 257 kts 109°
2026-04-27 19:48 38.51874 -9.64323 8329 ft 267 kts 117°
2026-04-27 19:48 38.50958 -9.62270 8177 ft 263 kts 118°
2026-04-27 19:48 38.50055 -9.60304 8053 ft 255 kts 118°
2026-04-27 19:48 38.49137 -9.58316 7962 ft 265 kts 118°
2026-04-27 19:49 38.47894 -9.55626 7930 ft 264 kts 118°
2026-04-27 19:49 38.46952 -9.53589 7930 ft 265 kts 118°
2026-04-27 19:49 38.46333 -9.52251 7935 ft 265 kts 118°
2026-04-27 19:49 38.45074 -9.49533 7927 ft 265 kts 118°
2026-04-27 19:50 38.44456 -9.48199 7927 ft 265 kts 118°
2026-04-27 19:50 38.43200 -9.45486 7930 ft 265 kts 118°
2026-04-27 19:50 38.42263 -9.43464 7921 ft 265 kts 118°
2026-04-27 19:50 38.41642 -9.42125 7919 ft 265 kts 118°
2026-04-27 19:51 38.40711 -9.40116 7930 ft 265 kts 118°
2026-04-27 19:51 38.39462 -9.37423 7928 ft 265 kts 118°
2026-04-27 19:51 38.38830 -9.36061 7922 ft 265 kts 118°
2026-04-27 19:51 38.37615 -9.33447 7920 ft 248 kts 119°
2026-04-27 19:52 38.36756 -9.31608 7924 ft 241 kts 119°
2026-04-27 19:52 38.36195 -9.30372 7923 ft 242 kts 114°
2026-04-27 19:52 38.35844 -9.28326 7766 ft 236 kts 82°
2026-04-27 19:52 38.36477 -9.26467 7305 ft 237 kts 46°
2026-04-27 19:53 38.39466 -9.24810 6569 ft 242 kts
2026-04-27 19:53 38.41143 -9.24827 6260 ft 241 kts
2026-04-27 19:53 38.43377 -9.24807 5870 ft 239 kts
2026-04-27 19:54 38.44477 -9.24740 5642 ft 239 kts
2026-04-27 19:54 38.46140 -9.24617 5330 ft 236 kts
2026-04-27 19:54 38.47757 -9.24497 5183 ft 234 kts
2026-04-27 19:54 38.49386 -9.24381 5120 ft 235 kts
2026-04-27 19:55 38.51025 -9.24269 5048 ft 236 kts
2026-04-27 19:55 38.52658 -9.24160 4959 ft 236 kts
2026-04-27 19:55 38.54305 -9.24049 4702 ft 236 kts
2026-04-27 19:55 38.55938 -9.23950 4486 ft 232 kts
2026-04-27 19:56 38.57509 -9.24016 4328 ft 225 kts
2026-04-27 19:56 38.59031 -9.23722 4058 ft 217 kts 20°
2026-04-27 19:56 38.60409 -9.23045 3765 ft 213 kts 25°
2026-04-27 19:56 38.61753 -9.22291 3484 ft 209 kts 24°
2026-04-27 19:57 38.63065 -9.21584 3198 ft 205 kts 24°
2026-04-27 19:57 38.64341 -9.20914 2945 ft 199 kts 23°
2026-04-27 19:57 38.65595 -9.20251 2665 ft 191 kts 22°
2026-04-27 19:57 38.67133 -9.19434 2395 ft 167 kts 22°
2026-04-27 19:58 38.67817 -9.19071 2233 ft 159 kts 22°
2026-04-27 19:58 38.68800 -9.18549 1972 ft 147 kts 21°
2026-04-27 19:58 38.69688 -9.18078 1831 ft 147 kts 21°
2026-04-27 19:58 38.70627 -9.17579 1629 ft 145 kts 20°
2026-04-27 19:59 38.71560 -9.17085 1445 ft 146 kts 20°
2026-04-27 19:59 38.72476 -9.16598 1255 ft 146 kts 20°
2026-04-27 19:59 38.73382 -9.16116 1079 ft 148 kts 20°
2026-04-27 19:59 38.74312 -9.15622 860 ft 149 kts 20°
2026-04-27 20:00 38.75245 -9.15129 689 ft 147 kts 19°
2026-04-27 20:00 38.75661 -9.14910 624 ft 146 kts 20°
2026-04-27 20:00 38.76792 -9.14311 402 ft 150 kts 21°
2026-04-27 20:00 38.77275 -9.14042 382 ft 139 kts 20°
2026-04-27 20:01 38.78389 -9.13450 377 ft 28 kts 22°
2026-04-27 20:01 38.78534 -9.13312 377 ft 22 kts 81°
2026-04-27 20:01 38.78529 -9.13276 377 ft 0 kts 118°
2026-04-27 20:02 38.78507 -9.13246 377 ft 16 kts 141°
2026-04-27 20:02 38.78426 -9.13218 377 ft 7 kts 180°
2026-04-27 20:03 38.78379 -9.13229 377 ft 6 kts 198°
2026-04-27 20:03 38.78375 -9.13231 377 ft 0 kts 201°
2026-04-27 20:04 38.78312 -9.13266 377 ft 24 kts 204°
2026-04-27 20:04 38.78148 -9.13353 377 ft 26 kts 203°
2026-04-27 20:04 38.77999 -9.13430 377 ft 20 kts 204°
2026-04-27 20:04 38.77931 -9.13469 377 ft 7 kts 203°
2026-04-27 20:05 38.77874 -9.13500 377 ft 6 kts 204°
2026-04-27 20:05 38.77836 -9.13522 377 ft 5 kts 204°
2026-04-27 20:05 38.77777 -9.13554 377 ft 20 kts 202°
2026-04-27 20:05 38.77581 -9.13666 377 ft 33 kts 207°
2026-04-27 20:06 38.77383 -9.13821 377 ft 32 kts 216°